| time (UTC) | temp F | wind direction | speed knots | gust knots | rain 1hr in | rain 24hr in | rain mn in | humidity % | barometer mb |
| 20260506202546 | 53 | 272 | 8.7 | 0.0 | 0.00 | 0.00 | 0.00 | 22 | 1017.5 |
| 20260506202045 | 53 | 179 | 9.6 | 0.0 | 0.00 | 0.00 | 0.00 | 22 | 1017.6 |
| 20260506201548 | 52 | 285 | 8.7 | 0.0 | 0.00 | 0.00 | 0.00 | 22 | 1017.7 |
| 20260506201044 | 53 | 269 | 8.7 | 0.0 | 0.00 | 0.00 | 0.00 | 21 | 1017.8 |
| 20260506200545 | 53 | 272 | 7.8 | 0.0 | 0.00 | 0.00 | 0.00 | 22 | 1017.9 |
| 20260506200042 | 53 | 247 | 7.0 | 0.0 | 0.00 | 0.00 | 0.00 | 21 | 1017.9 |
| 20260506195543 | 51 | 272 | 7.8 | 0.0 | 0.00 | 0.00 | 0.00 | 22 | 1018.1 |
| 20260506195041 | 51 | 223 | 10.4 | 0.0 | 0.00 | 0.00 | 0.00 | 21 | 1018.1 |
| 20260506194541 | 52 | 277 | 7.8 | 0.0 | 0.00 | 0.00 | 0.00 | 20 | 1018.2 |
| 20260506194040 | 51 | 261 | 6.1 | 0.0 | 0.00 | 0.00 | 0.00 | 22 | 1018.3 |
| 20260506193640 | 51 | 218 | 8.7 | 0.0 | 0.00 | 0.00 | 0.00 | 22 | 1018.4 |
| 20260506193040 | 51 | 207 | 11.3 | 0.0 | 0.00 | 0.00 | 0.00 | 21 | 1018.6 |
| 20260506192539 | 52 | 311 | 9.6 | 0.0 | 0.00 | 0.00 | 0.00 | 22 | 1018.7 |
| 20260506192038 | 51 | 267 | 6.1 | 0.0 | 0.00 | 0.00 | 0.00 | 23 | 1018.7 |
| 20260506191538 | 51 | 298 | 6.1 | 0.0 | 0.00 | 0.00 | 0.00 | 23 | 1018.8 |
| 20260506191037 | 51 | 317 | 7.8 | 0.0 | 0.00 | 0.00 | 0.00 | 21 | 1018.9 |
| 20260506190540 | 51 | 314 | 7.8 | 0.0 | 0.00 | 0.00 | 0.00 | 22 | 1019.0 |
| 20260506190036 | 51 | 250 | 7.8 | 0.0 | 0.00 | 0.00 | 0.00 | 21 | 1019.0 |
| 20260506185534 | 51 | 300 | 7.8 | 0.0 | 0.00 | 0.00 | 0.00 | 22 | 1019.1 |
| 20260506185034 | 50 | 250 | 7.8 | 0.0 | 0.00 | 0.00 | 0.00 | 22 | 1019.2 |
| 20260506184533 | 50 | 232 | 5.2 | 0.0 | 0.00 | 0.00 | 0.00 | 22 | 1019.3 |
| 20260506184032 | 50 | 250 | 5.2 | 0.0 | 0.00 | 0.00 | 0.00 | 22 | 1019.5 |
| 20260506183633 | 50 | 315 | 7.0 | 0.0 | 0.00 | 0.00 | 0.00 | 22 | 1019.6 |
| 20260506183033 | 50 | 228 | 7.0 | 0.0 | 0.00 | 0.00 | 0.00 | 22 | 1019.6 |
| 20260506182531 | 50 | 236 | 7.0 | 0.0 | 0.00 | 0.00 | 0.00 | 22 | 1019.8 |
| 20260506182033 | 50 | 263 | 6.1 | 0.0 | 0.00 | 0.00 | 0.00 | 23 | 1019.8 |
| 20260506181529 | 49 | 308 | 7.8 | 0.0 | 0.00 | 0.00 | 0.00 | 22 | 1020.0 |
| 20260506181030 | 49 | 329 | 7.8 | 0.0 | 0.00 | 0.00 | 0.00 | 22 | 1020.1 |
| 20260506180528 | 50 | 324 | 8.7 | 0.0 | 0.00 | 0.00 | 0.00 | 23 | 1020.1 |
| 20260506180031 | 49 | 221 | 7.0 | 0.0 | 0.00 | 0.00 | 0.00 | 23 | 1020.3 |
| 20260506175526 | 48 | 254 | 7.0 | 0.0 | 0.00 | 0.00 | 0.00 | 22 | 1020.4 |
| 20260506175024 | 48 | 269 | 7.8 | 0.0 | 0.00 | 0.00 | 0.00 | 24 | 1020.5 |
| 20260506174530 | 48 | 270 | 7.0 | 0.0 | 0.00 | 0.00 | 0.00 | 23 | 1020.6 |
| 20260506174023 | 48 | 315 | 7.0 | 0.0 | 0.00 | 0.00 | 0.00 | 24 | 1020.6 |
| 20260506173624 | 47 | 323 | 8.7 | 0.0 | 0.00 | 0.00 | 0.00 | 24 | 1020.7 |
| 20260506173025 | 47 | 300 | 8.7 | 0.0 | 0.00 | 0.00 | 0.00 | 23 | 1020.7 |
| 20260506172521 | 48 | 319 | 7.8 | 0.0 | 0.00 | 0.00 | 0.00 | 23 | 1020.7 |
| 20260506172021 | 47 | 315 | 7.8 | 0.0 | 0.00 | 0.00 | 0.00 | 23 | 1020.8 |
| 20260506171534 | 48 | 307 | 7.8 | 0.0 | 0.00 | 0.00 | 0.00 | 23 | 1020.9 |
| 20260506171019 | 48 | 310 | 7.0 | 0.0 | 0.00 | 0.00 | 0.00 | 24 | 1021.0 |
| 20260506170520 | 47 | 292 | 7.8 | 0.0 | 0.00 | 0.00 | 0.00 | 25 | 1021.1 |
| 20260506170017 | 47 | 340 | 7.8 | 0.0 | 0.00 | 0.00 | 0.00 | 25 | 1021.1 |
| 20260506165516 | 46 | 257 | 7.0 | 0.0 | 0.00 | 0.00 | 0.00 | 26 | 1021.2 |
| 20260506165016 | 46 | 269 | 8.7 | 0.0 | 0.00 | 0.00 | 0.00 | 26 | 1021.3 |
| 20260506164515 | 46 | 273 | 7.8 | 0.0 | 0.00 | 0.00 | 0.00 | 26 | 1021.4 |
| 20260506164016 | 46 | 263 | 6.1 | 0.0 | 0.00 | 0.00 | 0.00 | 26 | 1021.5 |
| 20260506163614 | 46 | 293 | 7.0 | 0.0 | 0.00 | 0.00 | 0.00 | 27 | 1021.6 |
| 20260506163013 | 45 | 265 | 7.0 | 0.0 | 0.00 | 0.00 | 0.00 | 28 | 1021.5 |
| 20260506162512 | 45 | 275 | 7.0 | 0.0 | 0.00 | 0.00 | 0.00 | 28 | 1021.7 |
| 20260506162012 | 45 | 276 | 7.0 | 0.0 | 0.00 | 0.00 | 0.00 | 28 | 1021.7 |
| 20260506161510 | 45 | 286 | 7.0 | 0.0 | 0.00 | 0.00 | 0.00 | 28 | 1021.7 |
| 20260506161009 | 44 | 259 | 7.0 | 0.0 | 0.00 | 0.00 | 0.00 | 30 | 1021.7 |
| 20260506160509 | 44 | 326 | 7.0 | 0.0 | 0.00 | 0.00 | 0.00 | 30 | 1021.9 |
| 20260506160008 | 44 | 251 | 7.0 | 0.0 | 0.00 | 0.00 | 0.00 | 32 | 1021.9 |
| 20260506155508 | 43 | 252 | 6.1 | 0.0 | 0.00 | 0.00 | 0.00 | 33 | 1022.0 |
| 20260506155006 | 43 | 252 | 4.3 | 0.0 | 0.00 | 0.00 | 0.00 | 33 | 1022.0 |
| 20260506154505 | 43 | 281 | 4.3 | 0.0 | 0.00 | 0.00 | 0.00 | 34 | 1022.0 |
| 20260506154008 | 42 | 302 | 5.2 | 0.0 | 0.00 | 0.00 | 0.00 | 34 | 1022.1 |
| 20260506153604 | 41 | 298 | 5.2 | 0.0 | 0.00 | 0.00 | 0.00 | 35 | 1022.2 |
| 20260506153004 | 41 | 242 | 6.1 | 0.0 | 0.00 | 0.00 | 0.00 | 35 | 1022.3 |
| 20260506152503 | 41 | 259 | 6.1 | 0.0 | 0.00 | 0.00 | 0.00 | 36 | 1022.3 |
| 20260506152003 | 41 | 228 | 7.0 | 0.0 | 0.00 | 0.00 | 0.00 | 36 | 1022.4 |
| 20260506151502 | 41 | 241 | 5.2 | 0.0 | 0.00 | 0.00 | 0.00 | 36 | 1022.5 |
| 20260506151001 | 41 | 257 | 4.3 | 0.0 | 0.00 | 0.00 | 0.00 | 37 | 1022.5 |
| 20260506150503 | 41 | 256 | 4.3 | 0.0 | 0.00 | 0.00 | 0.00 | 37 | 1022.5 |
| 20260506150200 | 40 | 242 | 4.3 | 0.0 | 0.00 | 0.00 | 0.00 | 37 | 1022.6 |
| 20260506145600 | 40 | 332 | 4.3 | 0.0 | 0.00 | 0.00 | 0.00 | 38 | 1022.5 |
| 20260506145057 | 39 | 297 | 3.5 | 0.0 | 0.00 | 0.00 | 0.00 | 39 | 1022.5 |
| 20260506144603 | 39 | 205 | 5.2 | 0.0 | 0.00 | 0.00 | 0.00 | 40 | 1022.6 |
| 20260506144055 | 38 | 279 | 4.3 | 0.0 | 0.00 | 0.00 | 0.00 | 40 | 1022.7 |
| 20260506143554 | 37 | 247 | 3.5 | 0.0 | 0.00 | 0.00 | 0.00 | 43 | 1022.8 |
| 20260506143054 | 37 | 250 | 3.5 | 0.0 | 0.00 | 0.00 | 0.00 | 43 | 1022.8 |
| 20260506142551 | 37 | 251 | 3.5 | 0.0 | 0.00 | 0.00 | 0.00 | 44 | 1022.8 |
| 20260506142051 | 36 | 282 | 2.6 | 0.0 | 0.00 | 0.00 | 0.00 | 45 | 1022.9 |
| 20260506141550 | 36 | 245 | 2.6 | 0.0 | 0.00 | 0.00 | 0.00 | 45 | 1023.0 |
| 20260506141049 | 36 | 261 | 1.7 | 0.0 | 0.00 | 0.00 | 0.00 | 47 | 1022.9 |
| 20260506140549 | 36 | 285 | 1.7 | 0.0 | 0.00 | 0.00 | 0.00 | 47 | 1023.0 |
| 20260506140048 | 35 | 334 | 0.9 | 0.0 | 0.00 | 0.00 | 0.00 | 48 | 1023.0 |
| 20260506135546 | 35 | 5 | 0.0 | 0.0 | 0.00 | 0.00 | 0.00 | 48 | 1023.0 |
| 20260506135045 | 34 | 5 | 0.9 | 0.0 | 0.00 | 0.00 | 0.00 | 49 | 1023.0 |
| 20260506134544 | 34 | 11 | 0.9 | 0.0 | 0.00 | 0.00 | 0.00 | 49 | 1023.0 |
| 20260506134043 | 33 | 11 | 0.0 | 0.0 | 0.00 | 0.00 | 0.00 | 51 | 1023.0 |
| 20260506133542 | 32 | 90 | 0.0 | 0.0 | 0.00 | 0.00 | 0.00 | 53 | 1023.1 |
| 20260506133042 | 32 | 90 | 0.0 | 0.0 | 0.00 | 0.00 | 0.00 | 54 | 1023.1 |
| 20260506132545 | 30 | 90 | 0.0 | 0.0 | 0.00 | 0.00 | 0.00 | 57 | 1023.1 |
| 20260506132040 | 30 | 90 | 0.9 | 0.0 | 0.00 | 0.00 | 0.00 | 57 | 1023.2 |
| 20260506131546 | 29 | 90 | 0.9 | 0.0 | 0.00 | 0.00 | 0.00 | 58 | 1023.2 |
| 20260506131038 | 28 | 90 | 1.7 | 0.0 | 0.00 | 0.00 | 0.00 | 60 | 1023.2 |
| 20260506130536 | 26 | 90 | 2.6 | 0.0 | 0.00 | 0.00 | 0.00 | 61 | 1023.2 |
| 20260506130034 | 25 | 90 | 2.6 | 0.0 | 0.00 | 0.00 | 0.00 | 63 | 1023.1 |
| 20260506125533 | 24 | 90 | 3.5 | 0.0 | 0.00 | 0.00 | 0.00 | 65 | 1023.2 |
| 20260506125032 | 23 | 90 | 2.6 | 0.0 | 0.00 | 0.00 | 0.00 | 67 | 1023.2 |
| 20260506124534 | 21 | 90 | 3.5 | 0.0 | 0.00 | 0.00 | 0.00 | 70 | 1023.1 |
| 20260506124033 | 18 | 90 | 2.6 | 0.0 | 0.00 | 0.00 | 0.00 | 75 | 1023.0 |
| 20260506123530 | 18 | 90 | 1.7 | 0.0 | 0.00 | 0.00 | 0.00 | 75 | 1023.0 |
| 20260506123029 | 17 | 90 | 1.7 | 0.0 | 0.00 | 0.00 | 0.00 | 75 | 1023.0 |
| 20260506122528 | 16 | 90 | 1.7 | 0.0 | 0.00 | 0.00 | 0.00 | 75 | 1022.9 |
| 20260506122030 | 15 | 90 | 1.7 | 0.0 | 0.00 | 0.00 | 0.00 | 75 | 1022.9 |
| 20260506121527 | 15 | 90 | 1.7 | 0.0 | 0.00 | 0.00 | 0.00 | 75 | 1022.9 |
| 20260506121027 | 14 | 90 | 1.7 | 0.0 | 0.00 | 0.00 | 0.00 | 75 | 1022.8 |
| 20260506120527 | 14 | 90 | 0.9 | 0.0 | 0.00 | 0.00 | 0.00 | 75 | 1022.9 |
| 20260506120027 | 13 | 90 | 0.9 | 0.0 | 0.00 | 0.00 | 0.00 | 75 | 1022.8 |
| 20260506115525 | 13 | 90 | 0.9 | 0.0 | 0.00 | 0.00 | 0.00 | 77 | 1022.7 |
| 20260506115024 | 12 | 90 | 0.9 | 0.0 | 0.00 | 0.00 | 0.00 | 77 | 1022.6 |
| 20260506114534 | 12 | 90 | 1.7 | 0.0 | 0.00 | 0.00 | 0.00 | 75 | 1022.6 |
| 20260506114024 | 12 | 90 | 1.7 | 0.0 | 0.00 | 0.00 | 0.00 | 75 | 1022.5 |
| 20260506113523 | 13 | 90 | 0.9 | 0.0 | 0.00 | 0.00 | 0.00 | 75 | 1022.4 |
| 20260506113024 | 13 | 90 | 0.9 | 0.0 | 0.00 | 0.00 | 0.00 | 75 | 1022.4 |
| 20260506112523 | 13 | 90 | 0.9 | 0.0 | 0.00 | 0.00 | 0.00 | 76 | 1022.3 |
| 20260506112023 | 12 | 90 | 1.7 | 0.0 | 0.00 | 0.00 | 0.00 | 76 | 1022.3 |
| 20260506111523 | 12 | 90 | 1.7 | 0.0 | 0.00 | 0.00 | 0.00 | 76 | 1022.3 |
| 20260506111023 | 12 | 90 | 0.9 | 0.0 | 0.00 | 0.00 | 0.00 | 74 | 1022.3 |
| 20260506110526 | 12 | 90 | 1.7 | 0.0 | 0.00 | 0.00 | 0.00 | 74 | 1022.3 |
| 20260506110024 | 13 | 90 | 1.7 | 0.0 | 0.00 | 0.00 | 0.00 | 73 | 1022.3 |
| 20260506105527 | 14 | 90 | 1.7 | 0.0 | 0.00 | 0.00 | 0.00 | 72 | 1022.3 |
| 20260506105022 | 14 | 90 | 1.7 | 0.0 | 0.00 | 0.00 | 0.00 | 73 | 1022.2 |
| 20260506104522 | 14 | 90 | 1.7 | 0.0 | 0.00 | 0.00 | 0.00 | 73 | 1022.2 |
| 20260506104022 | 14 | 90 | 2.6 | 0.0 | 0.00 | 0.00 | 0.00 | 75 | 1022.3 |
| 20260506103522 | 13 | 90 | 2.6 | 0.0 | 0.00 | 0.00 | 0.00 | 75 | 1022.2 |
| 20260506103021 | 13 | 90 | 2.6 | 0.0 | 0.00 | 0.00 | 0.00 | 75 | 1022.2 |
| 20260506102520 | 13 | 90 | 1.7 | 0.0 | 0.00 | 0.00 | 0.00 | 74 | 1022.2 |
| 20260506102020 | 13 | 90 | 1.7 | 0.0 | 0.00 | 0.00 | 0.00 | 74 | 1022.1 |
| 20260506101521 | 13 | 90 | 1.7 | 0.0 | 0.00 | 0.00 | 0.00 | 75 | 1022.1 |
| 20260506101020 | 13 | 90 | 1.7 | 0.0 | 0.00 | 0.00 | 0.00 | 74 | 1022.1 |
| 20260506100520 | 13 | 90 | 1.7 | 0.0 | 0.00 | 0.00 | 0.00 | 74 | 1022.1 |
| 20260506100024 | 13 | 90 | 1.7 | 0.0 | 0.00 | 0.00 | 0.00 | 75 | 1022.1 |
| 20260506095520 | 13 | 90 | 1.7 | 0.0 | 0.00 | 0.00 | 0.00 | 75 | 1022.1 |
| 20260506095020 | 13 | 90 | 1.7 | 0.0 | 0.00 | 0.00 | 0.00 | 74 | 1022.1 |
| 20260506094519 | 13 | 90 | 0.9 | 0.0 | 0.00 | 0.00 | 0.00 | 72 | 1022.2 |
| 20260506094017 | 14 | 90 | 1.7 | 0.0 | 0.00 | 0.00 | 0.00 | 73 | 1022.1 |
| 20260506093520 | 14 | 90 | 2.6 | 0.0 | 0.00 | 0.00 | 0.00 | 73 | 1022.0 |
| 20260506093017 | 14 | 90 | 2.6 | 0.0 | 0.00 | 0.00 | 0.00 | 73 | 1022.0 |
| 20260506092520 | 13 | 90 | 2.6 | 0.0 | 0.00 | 0.00 | 0.00 | 73 | 1022.1 |
| 20260506092017 | 14 | 90 | 1.7 | 0.0 | 0.00 | 0.00 | 0.00 | 72 | 1022.0 |
| 20260506091520 | 14 | 90 | 1.7 | 0.0 | 0.00 | 0.00 | 0.00 | 72 | 1022.0 |
| 20260506091016 | 14 | 90 | 1.7 | 0.0 | 0.00 | 0.00 | 0.00 | 72 | 1022.0 |
| 20260506090515 | 14 | 90 | 1.7 | 0.0 | 0.00 | 0.00 | 0.00 | 73 | 1021.9 |
| 20260506090016 | 14 | 90 | 2.6 | 0.0 | 0.00 | 0.00 | 0.00 | 73 | 1022.0 |
| 20260506085515 | 14 | 90 | 2.6 | 0.0 | 0.00 | 0.00 | 0.00 | 73 | 1021.9 |
| 20260506085015 | 14 | 90 | 2.6 | 0.0 | 0.00 | 0.00 | 0.00 | 73 | 1021.9 |
| 20260506084515 | 14 | 90 | 3.5 | 0.0 | 0.00 | 0.00 | 0.00 | 73 | 1021.9 |
| 20260506084014 | 14 | 90 | 2.6 | 0.0 | 0.00 | 0.00 | 0.00 | 72 | 1021.9 |
| 20260506083514 | 14 | 90 | 2.6 | 0.0 | 0.00 | 0.00 | 0.00 | 72 | 1021.9 |
| 20260506083014 | 14 | 90 | 2.6 | 0.0 | 0.00 | 0.00 | 0.00 | 72 | 1021.9 |
| 20260506082513 | 14 | 90 | 2.6 | 0.0 | 0.00 | 0.00 | 0.00 | 72 | 1021.9 |
| 20260506082012 | 14 | 90 | 3.5 | 0.0 | 0.00 | 0.00 | 0.00 | 71 | 1021.9 |
| 20260506081511 | 15 | 90 | 3.5 | 0.0 | 0.00 | 0.00 | 0.00 | 70 | 1021.9 |
| 20260506081010 | 15 | 90 | 2.6 | 0.0 | 0.00 | 0.00 | 0.00 | 68 | 1021.9 |
| 20260506080510 | 16 | 90 | 1.7 | 0.0 | 0.00 | 0.00 | 0.00 | 69 | 1021.9 |
| 20260506073506 | 16 | 90 | 1.7 | 0.0 | 0.00 | 0.00 | 0.00 | 69 | 1021.8 |
| 20260506073005 | 16 | 90 | 1.7 | 0.0 | 0.00 | 0.00 | 0.00 | 69 | 1021.9 |
| 20260506072503 | 16 | 90 | 1.7 | 0.0 | 0.00 | 0.00 | 0.00 | 69 | 1021.8 |
| 20260506072006 | 16 | 90 | 2.6 | 0.0 | 0.00 | 0.00 | 0.00 | 68 | 1021.7 |
| 20260506071503 | 16 | 90 | 2.6 | 0.0 | 0.00 | 0.00 | 0.00 | 69 | 1021.7 |
| 20260506071003 | 16 | 90 | 1.7 | 0.0 | 0.00 | 0.00 | 0.00 | 69 | 1021.7 |
| 20260506070505 | 16 | 90 | 1.7 | 0.0 | 0.00 | 0.00 | 0.00 | 69 | 1021.7 |
| 20260506062058 | 18 | 90 | 2.6 | 0.0 | 0.00 | 0.00 | 0.00 | 65 | 1021.5 |
| 20260506061556 | 18 | 83 | 2.6 | 0.0 | 0.00 | 0.00 | 0.00 | 65 | 1021.5 |
| 20260506061056 | 18 | 83 | 2.6 | 0.0 | 0.00 | 0.00 | 0.00 | 64 | 1021.5 |
| 20260506060553 | 19 | 83 | 1.7 | 0.0 | 0.00 | 0.00 | 0.00 | 62 | 1021.5 |
| 20260506051043 | 23 | 68 | 2.6 | 0.0 | 0.00 | 0.00 | 0.00 | 58 | 1021.0 |
| 20260506050545 | 24 | 68 | 2.6 | 0.0 | 0.00 | 0.00 | 0.00 | 57 | 1020.9 |
| 20260506045036 | 28 | 355 | 0.0 | 0.0 | 0.00 | 0.00 | 0.00 | 51 | 1021.0 |
| 20260506044543 | 29 | 300 | 0.0 | 0.0 | 0.00 | 0.00 | 0.00 | 51 | 1020.9 |
| 20260506044034 | 29 | 300 | 0.9 | 0.0 | 0.00 | 0.00 | 0.00 | 51 | 1020.9 |
| 20260506043533 | 29 | 300 | 0.9 | 0.0 | 0.00 | 0.00 | 0.00 | 50 | 1020.9 |
| 20260506042533 | 30 | 300 | 1.7 | 0.0 | 0.00 | 0.00 | 0.00 | 49 | 1020.9 |
| 20260506042032 | 31 | 300 | 1.7 | 0.0 | 0.00 | 0.00 | 0.00 | 48 | 1020.9 |
| 20260506041530 | 32 | 298 | 0.9 | 0.0 | 0.00 | 0.00 | 0.00 | 46 | 1020.8 |
| 20260506041032 | 33 | 290 | 0.9 | 0.0 | 0.00 | 0.00 | 0.00 | 45 | 1020.8 |
| 20260506040529 | 34 | 290 | 0.9 | 0.0 | 0.00 | 0.00 | 0.00 | 44 | 1020.8 |
| 20260506040028 | 35 | 290 | 2.6 | 0.0 | 0.00 | 0.00 | 0.00 | 43 | 1020.7 |
| 20260506035531 | 36 | 292 | 3.5 | 0.0 | 0.00 | 0.00 | 0.00 | 41 | 1020.7 |
| 20260506035029 | 37 | 305 | 4.3 | 0.0 | 0.00 | 0.00 | 0.00 | 40 | 1020.7 |
| 20260506034528 | 38 | 319 | 4.3 | 0.0 | 0.00 | 0.00 | 0.00 | 39 | 1020.6 |
| 20260506034027 | 39 | 320 | 4.3 | 0.0 | 0.00 | 0.00 | 0.00 | 39 | 1020.6 |
| 20260506033526 | 39 | 312 | 3.5 | 0.0 | 0.00 | 0.00 | 0.00 | 40 | 1020.6 |
| 20260506032526 | 39 | 310 | 1.7 | 0.0 | 0.00 | 0.00 | 0.00 | 40 | 1020.5 |
| 20260506032028 | 40 | 306 | 1.7 | 0.0 | 0.00 | 0.00 | 0.00 | 39 | 1020.4 |
| 20260506031532 | 40 | 296 | 2.6 | 0.0 | 0.00 | 0.00 | 0.00 | 39 | 1020.3 |
| 20260506031025 | 41 | 323 | 3.5 | 0.0 | 0.00 | 0.00 | 0.00 | 38 | 1020.3 |
| 20260506030527 | 41 | 309 | 4.3 | 0.0 | 0.00 | 0.00 | 0.00 | 38 | 1020.3 |
| 20260506030046 | 41 | 319 | 4.3 | 0.0 | 0.00 | 0.00 | 0.00 | 38 | 1020.3 |
| 20260506025524 | 41 | 323 | 5.2 | 0.0 | 0.00 | 0.00 | 0.00 | 38 | 1020.3 |
| 20260506025027 | 41 | 306 | 4.3 | 0.0 | 0.00 | 0.00 | 0.00 | 38 | 1020.2 |
| 20260506024528 | 41 | 312 | 4.3 | 0.0 | 0.00 | 0.00 | 0.00 | 38 | 1020.2 |
| 20260506024023 | 41 | 328 | 3.5 | 0.0 | 0.00 | 0.00 | 0.00 | 38 | 1020.1 |
| 20260506023522 | 41 | 316 | 1.7 | 0.0 | 0.00 | 0.00 | 0.00 | 38 | 1020.0 |
| 20260506022521 | 42 | 286 | 2.6 | 0.0 | 0.00 | 0.00 | 0.00 | 38 | 1019.9 |
| 20260506022020 | 42 | 311 | 4.3 | 0.0 | 0.00 | 0.00 | 0.00 | 37 | 1019.9 |
| 20260506021521 | 42 | 320 | 5.2 | 0.0 | 0.00 | 0.00 | 0.00 | 36 | 1019.9 |
| 20260506021021 | 43 | 310 | 6.1 | 0.0 | 0.00 | 0.00 | 0.00 | 35 | 1019.9 |
| 20260506020524 | 43 | 318 | 6.1 | 0.0 | 0.00 | 0.00 | 0.00 | 35 | 1019.9 |
| 20260506020020 | 43 | 306 | 7.0 | 0.0 | 0.00 | 0.00 | 0.00 | 35 | 1019.8 |
| 20260506015520 | 43 | 317 | 7.8 | 0.0 | 0.00 | 0.00 | 0.00 | 34 | 1019.8 |
| 20260506015020 | 43 | 316 | 7.0 | 0.0 | 0.00 | 0.00 | 0.00 | 34 | 1019.7 |
| 20260506014520 | 44 | 327 | 5.2 | 0.0 | 0.00 | 0.00 | 0.00 | 34 | 1019.6 |
| 20260506014020 | 44 | 315 | 7.0 | 0.0 | 0.00 | 0.00 | 0.00 | 34 | 1019.6 |
| 20260506013523 | 44 | 319 | 9.6 | 0.0 | 0.00 | 0.00 | 0.00 | 33 | 1019.6 |
| 20260506012520 | 44 | 314 | 10.4 | 0.0 | 0.00 | 0.00 | 0.00 | 32 | 1019.6 |
| 20260506012020 | 45 | 327 | 8.7 | 0.0 | 0.00 | 0.00 | 0.00 | 31 | 1019.6 |
| 20260506011530 | 45 | 276 | 8.7 | 0.0 | 0.00 | 0.00 | 0.00 | 32 | 1019.5 |
| 20260506011022 | 45 | 286 | 9.6 | 0.0 | 0.00 | 0.00 | 0.00 | 32 | 1019.4 |
| 20260506010520 | 45 | 315 | 9.6 | 0.0 | 0.00 | 0.00 | 0.00 | 31 | 1019.5 |
| 20260506010020 | 45 | 294 | 10.4 | 0.0 | 0.00 | 0.00 | 0.00 | 32 | 1019.4 |
| 20260506005520 | 45 | 327 | 9.6 | 0.0 | 0.00 | 0.00 | 0.00 | 31 | 1019.5 |
| 20260506005019 | 46 | 326 | 10.4 | 0.0 | 0.00 | 0.00 | 0.00 | 31 | 1019.3 |
| 20260506004536 | 46 | 308 | 12.2 | 0.0 | 0.00 | 0.00 | 0.00 | 31 | 1019.4 |
| 20260506004019 | 46 | 284 | 11.3 | 0.0 | 0.00 | 0.00 | 0.00 | 32 | 1019.3 |
| 20260506003519 | 45 | 321 | 10.4 | 0.0 | 0.00 | 0.00 | 0.00 | 32 | 1019.3 |
| 20260506002518 | 45 | 333 | 8.7 | 0.0 | 0.00 | 0.00 | 0.00 | 32 | 1019.4 |
| 20260506002019 | 45 | 331 | 9.6 | 0.0 | 0.00 | 0.00 | 0.00 | 33 | 1019.5 |
| 20260506001521 | 45 | 337 | 11.3 | 0.0 | 0.00 | 0.00 | 0.00 | 33 | 1019.5 |
| 20260506001019 | 44 | 304 | 10.4 | 0.0 | 0.00 | 0.00 | 0.00 | 34 | 1019.5 |
| 20260506000519 | 44 | 319 | 10.4 | 0.0 | 0.00 | 0.00 | 0.00 | 33 | 1019.5 |
| 20260506000023 | 44 | 313 | 10.4 | 0.0 | 0.00 | 0.00 | 0.00 | 33 | 1019.6 |
| 20260505235518 | 44 | 336 | 9.6 | 0.0 | 0.00 | 0.00 | 0.00 | 34 | 1019.5 |
| 20260505235018 | 44 | 338 | 9.6 | 0.0 | 0.00 | 0.00 | 0.00 | 34 | 1019.5 |
| 20260505234518 | 44 | 323 | 10.4 | 0.0 | 0.00 | 0.00 | 0.00 | 34 | 1019.5 |
| 20260505234018 | 44 | 327 | 10.4 | 0.0 | 0.00 | 0.00 | 0.00 | 34 | 1019.4 |
| 20260505233520 | 44 | 293 | 10.4 | 0.0 | 0.00 | 0.00 | 0.00 | 34 | 1019.4 |
| 20260505232518 | 44 | 338 | 9.6 | 0.0 | 0.00 | 0.00 | 0.00 | 34 | 1019.4 |
| 20260505232018 | 44 | 331 | 11.3 | 0.0 | 0.00 | 0.00 | 0.00 | 34 | 1019.4 |
| 20260505231525 | 44 | 310 | 11.3 | 0.0 | 0.00 | 0.00 | 0.00 | 34 | 1019.2 |
| 20260505231018 | 45 | 313 | 10.4 | 0.0 | 0.00 | 0.00 | 0.00 | 33 | 1019.2 |
| 20260505230519 | 45 | 321 | 10.4 | 0.0 | 0.00 | 0.00 | 0.00 | 33 | 1019.1 |
| 20260505230021 | 46 | 286 | 9.6 | 0.0 | 0.00 | 0.00 | 0.00 | 33 | 1019.1 |
| 20260505225518 | 45 | 321 | 9.6 | 0.0 | 0.00 | 0.00 | 0.00 | 33 | 1019.2 |
| 20260505225022 | 45 | 273 | 9.6 | 0.0 | 0.00 | 0.00 | 0.00 | 33 | 1019.1 |
| 20260505224517 | 45 | 300 | 10.4 | 0.0 | 0.00 | 0.00 | 0.00 | 33 | 1019.2 |
| 20260505224018 | 44 | 280 | 11.3 | 0.0 | 0.00 | 0.00 | 0.00 | 34 | 1019.1 |
| 20260505223518 | 44 | 308 | 11.3 | 0.0 | 0.00 | 0.00 | 0.00 | 34 | 1019.2 |
| 20260505222519 | 45 | 326 | 10.4 | 0.0 | 0.00 | 0.00 | 0.00 | 33 | 1019.2 |
| 20260505222017 | 45 | 331 | 12.2 | 0.0 | 0.00 | 0.00 | 0.00 | 35 | 1019.2 |
| 20260505221519 | 44 | 288 | 11.3 | 0.0 | 0.00 | 0.00 | 0.00 | 34 | 1019.3 |
| 20260505221016 | 44 | 342 | 10.4 | 0.0 | 0.00 | 0.00 | 0.00 | 34 | 1019.2 |
| 20260505220516 | 44 | 355 | 11.3 | 0.0 | 0.00 | 0.00 | 0.00 | 34 | 1019.2 |
| 20260505220016 | 44 | 313 | 11.3 | 0.0 | 0.00 | 0.00 | 0.00 | 34 | 1019.2 |
| 20260505215516 | 46 | 329 | 11.3 | 0.0 | 0.00 | 0.00 | 0.00 | 33 | 1019.1 |
| 20260505215020 | 44 | 321 | 11.3 | 0.0 | 0.00 | 0.00 | 0.00 | 34 | 1019.2 |
| 20260505214517 | 45 | 321 | 13.0 | 0.0 | 0.00 | 0.00 | 0.00 | 33 | 1019.4 |
| 20260505214016 | 45 | 272 | 11.3 | 0.0 | 0.00 | 0.00 | 0.00 | 33 | 1019.3 |
| 20260505213519 | 46 | 275 | 10.4 | 0.0 | 0.00 | 0.00 | 0.00 | 33 | 1019.3 |
| 20260505212515 | 44 | 330 | 11.3 | 0.0 | 0.00 | 0.00 | 0.00 | 35 | 1019.4 |
| 20260505212015 | 44 | 323 | 11.3 | 0.0 | 0.00 | 0.00 | 0.00 | 35 | 1019.4 |
| 20260505211514 | 44 | 312 | 10.4 | 0.0 | 0.00 | 0.00 | 0.00 | 34 | 1019.4 |
| 20260505211013 | 44 | 300 | 10.4 | 0.0 | 0.00 | 0.00 | 0.00 | 35 | 1019.4 |
| 20260505210515 | 44 | 329 | 10.4 | 0.0 | 0.00 | 0.00 | 0.00 | 35 | 1019.4 |
| 20260505210013 | 45 | 309 | 10.4 | 0.0 | 0.00 | 0.00 | 0.00 | 34 | 1019.5 |
| 20260505205513 | 44 | 280 | 10.4 | 0.0 | 0.00 | 0.00 | 0.00 | 35 | 1019.5 |
| 20260505205012 | 43 | 308 | 10.4 | 0.0 | 0.00 | 0.00 | 0.00 | 36 | 1019.6 |
| 20260505204514 | 43 | 339 | 10.4 | 0.0 | 0.00 | 0.00 | 0.00 | 36 | 1019.6 |
| 20260505204013 | 43 | 323 | 10.4 | 0.0 | 0.00 | 0.00 | 0.00 | 36 | 1019.7 |
| 20260505203511 | 43 | 340 | 11.3 | 0.0 | 0.00 | 0.00 | 0.00 | 37 | 1019.7 |